Lexington Weather

Lexington, Massachusetts, USA

26°F
2/29/2020 1:21am 
  • Lexington Conditions: Clear
  • Temperature: 26.4°F / -3.1°CColder 1.3°F than last hour.
  • Dew Point: 14.0°F 
  • Relative Humidity: 59%Increased 3.0% since last hour.
  • Wind: Calm, 10-min avg: Calm, gust: 1 mph
  • Barometer: 29.75 in Steady
  • Visibility: 10 miles
  • Snow Today: 0.0 in
  •   

Regional Weather Roundup
for Boston / Norton, MA

        
000
ASUS41 KBOX 280810
RWRBOX

REGIONAL WEATHER ROUNDUP
NATIONAL WEATHER SERVICE BOSTON/NORTON MA
300 AM EST FRI FEB 28 2020

NOTE:  "FAIR" INDICATES FEW OR NO CLOUDS BELOW 12,000 FEET WITH NO 
SIGNIFICANT WEATHER AND/OR OBSTRUCTIONS TO VISIBILITY.

MAZALL-280900-
EASTERN MASSACHUSETTS
  
CITY           SKY/WX    TMP DP  RH WIND       PRES   REMARKS
BOSTON         MOCLDY    33   5  30 W17G28    29.68S WCI  22          
BEVERLY        CLOUDY    30   6  36 W17G31    29.65S WCI  18          
LAWRENCE       CLOUDY    28  11  48 W9G21     29.66S WCI  19          
BEDFORD        CLOUDY    30   3  31 W13G30    29.66S WCI  20          
BLUE HILL        N/A     27  10  49 SW15G28   29.64S WCI  15          
NORWOOD        CLOUDY    33  10  38 SW13G20   29.69S WCI  24          
MARSHFIELD     FAIR      30  10  43 SW10G17   29.69S WCI  21          
PLYMOUTH       FAIR      29   9  43 W15       29.70S WCI  18          
TAUNTON        FAIR      29   6  38 W16G25    29.71S WCI  17          
NEW BEDFORD    FAIR      29   7  39 W16G24    29.72S WCI  17          
$$

MAZALL-280900-
CAPE COD AND THE ISLANDS
  
CITY           SKY/WX    TMP DP  RH WIND       PRES   REMARKS
FALMOUTH       CLEAR     30   7  37 W25G37    29.71S WCI  16          
HYANNIS        FAIR      32   7  35 W17G30    29.70S WCI  21          
CHATHAM        FAIR      31   9  39 W13G31    29.72F WCI  21          
PROVINCETOWN   FAIR      31  14  49 W23G33    29.69F WCI  18          
NANTUCKET      CLOUDY    34  17  50 W29G37    29.73S WCI  20          
MARTHAS VNYRD  CLOUDY    32  12  43 W14G24    29.73S WCI  22          
$$
 
MAZALL-280900-
CENTRAL AND WESTERN MASSACHUSETTS
  
CITY           SKY/WX    TMP DP  RH WIND       PRES   REMARKS
WORCESTER      MOCLDY    25   8  48 W15G22    29.62S WCI  13          
FITCHBURG      FAIR      27   6  41 SW12      29.65F WCI  17          
ORANGE         MOCLDY    27   6  41 W15G21    29.66S WCI  15          
SPRINGFIELD    CLOUDY    28  10  45 W13G25    29.69S WCI  18          
WESTFIELD      CLOUDY    28   9  44 SW9       29.70S WCI  19          
NORTH ADAMS    CLOUDY    24  11  57 W13G24    29.64F WCI  12          
PITTSFIELD     MOCLDY    23   7  50 W14       29.61F WCI  11          
$$
 
RIZALL-280900-
RHODE ISLAND
  
CITY           SKY/WX    TMP DP  RH WIND       PRES   REMARKS
PROVIDENCE     FAIR      29   8  41 SW13      29.73S WCI  19          
NEWPORT        FAIR      31   9  39 W14G25    29.73S WCI  21          
BLOCK ISLAND   MOCLDY    31  13  47 W23G36    29.77R WCI  18          
SMITHFIELD     FAIR      27   9  46 W14G25    29.69S WCI  16          
WESTERLY       FAIR      32   8  36 W15G28    29.76R WCI  22          
$$
 
CTZALL-280900-
CONNECTICUT
  
CITY           SKY/WX    TMP DP  RH WIND       PRES   REMARKS
BRADLEY INTL   FAIR      29   8  41 W13       29.72R WCI  19          
HARTFORD       CLOUDY    30   8  39 W9G17     29.75S WCI  22          
BRIDGEPORT     FAIR      31  11  43 W17G28    29.79S WCI  19          
DANBURY        MOCLDY    28   8  43 W10G24    29.76S WCI  19          
GROTON         FAIR      29   9  43 W16G26    29.76S WCI  17          
NEW HAVEN      MOCLDY    32  13  45 W13G22    29.78S WCI  22          
CHESTER        NOT AVBL                                               
MERIDEN        CLOUDY    30  10  43 W8G21     29.76S WCI  22          
WILLIMANTIC    FAIR      28   7  41 W14G21    29.74S WCI  17          
OXFORD         CLOUDY    26  12  55 W8G18     29.73S WCI  18          
$$

MEZ002-015-021-024-NHZ003-005-008-011-012-014-VTZ005-008-280900-
NORTHERN NEW ENGLAND
  
CITY           SKY/WX    TMP DP  RH WIND       PRES   REMARKS
PORTLAND ME    FAIR      29   8  41 W13G28    29.57R WCI  19          
BANGOR ME      MOCLDY    29  19  66 SW7       29.47R WCI  22          
CONCORD NH     FAIR      25   7  46 SW14G24   29.60S WCI  13          
MANCHESTER NH  CLOUDY    28   8  43 SW14G20   29.62S WCI  17          
NASHUA NH      MOCLDY    27  11  51 W8        29.65F WCI  19          
PORTSMOUTH NH  PTCLDY    28   6  39 SW20G32   29.60  WCI  15          
JAFFREY NH     MOCLDY    24   7  48 W7G17     29.59F WCI  16          
KEENE NH       CLOUDY    25  10  53 SW10G21   29.64S WCI  15          
BURLINGTON VT  CLOUDY    25  12  58 S14G23    29.49R WCI  13          
MT. WASHINGTON SNOWSHWR  -2  -2 100 W75G85      N/A  VSB 1/16WCI -39  
$$

NYZ052-076-280900-
EASTERN NEW YORK
  
CITY           SKY/WX    TMP DP  RH WIND       PRES   REMARKS
ALBANY         FAIR      27   7  42 W21G30    29.68F WCI  13          
NEW YORK CITY  MOCLDY    31  13  47 W21G29    29.82F WCI  18          
$$
 
ANZALL-280900-
MARINE OBSERVATIONS
  
STATION/POSITION TIME  TEMP    WIND        PRES    VSBY  WAVE
                       AIR SEA DIR/SP/G                  HT/PER
                 (UTC) (F)     (DEG/KT/KT) (MB)    (MI)  (FT/S)
BOSTON BUOY      0750   33 41  250/ 23/ 35 1003.8F         4/ 4
BUZZARDS BAY     0700          280/ 26/ 29 1007.6R
NANTUCKET SOUND  0740                      1006.4
MASS BAY-STELLWA 0704   32 41  290/ 27/ 35 1002.4R  1 7/8  6/ 5
ISLE OF SHOALS   0800   29     260/ 29/ 34 1002.4R
S OF BLOCK IS    0800      44                N/A          12/ 9
$$

......................KEY.........................
  SKY/WX - SKY CONDITION/PRESENT WEATHER
  TMP    - TEMPERATURE IN FAHRENHEIT
  DWPT   - DEWPOINT IN FAHRENHEIT
  RH     - RELATIVE HUMIDITY IN PERCENT
  WIND   - DIRECTION AND SPEED IN MPH
  PRES   - MEAN SEA LEVEL PRESSURE IN INCHES OF HG
  WCI    - WIND CHILL INDEX
  VSB    - VISIBILITY IN MILES
  HX     - HEAT INDEX
  TC     - TEMPERATURE IN CELSIUS
  VRB    - VARIABLE WIND DIRECTION
  N/A    - NOT AVAILABLE
  
      

Other recent Regional Weather Roundups

Sat Feb 29, 1:10am

Sat Feb 29, 1:00am

Sat Feb 29, 12:10am

Sat Feb 29, 12:00am

Fri Feb 28, 11:10pm

Fri Feb 28, 11:00pm

Fri Feb 28, 10:10pm

Fri Feb 28, 10:00pm

Fri Feb 28, 9:10pm

Fri Feb 28, 9:00pm

Fri Feb 28, 8:10pm

Fri Feb 28, 8:01pm

Fri Feb 28, 7:10pm

Fri Feb 28, 7:00pm

Fri Feb 28, 6:10pm

Fri Feb 28, 6:01pm

Fri Feb 28, 5:10pm

Fri Feb 28, 5:00pm

Fri Feb 28, 4:10pm

Fri Feb 28, 4:01pm

Fri Feb 28, 3:10pm

Fri Feb 28, 3:00pm

Fri Feb 28, 2:10pm

Fri Feb 28, 2:00pm

Fri Feb 28, 1:10pm

Fri Feb 28, 1:01pm

Fri Feb 28, 12:10pm

Fri Feb 28, 12:01pm

Fri Feb 28, 11:10am

Fri Feb 28, 11:00am

Fri Feb 28, 10:10am

Fri Feb 28, 10:00am

Fri Feb 28, 9:10am

Fri Feb 28, 9:01am

Fri Feb 28, 8:10am

Fri Feb 28, 8:00am

Fri Feb 28, 7:10am

Fri Feb 28, 7:00am

Fri Feb 28, 6:10am

Fri Feb 28, 6:00am

Fri Feb 28, 5:10am

Fri Feb 28, 5:00am

Fri Feb 28, 4:10am

Fri Feb 28, 4:00am

Fri Feb 28, 3:00am

Fri Feb 28, 2:10am

Fri Feb 28, 2:00am

Fri Feb 28, 1:10am

Fri Feb 28, 1:00am

Fri Feb 28, 12:10am

Fri Feb 28, 12:00am

Thu Feb 27, 11:10pm

Thu Feb 27, 11:01pm

Thu Feb 27, 10:10pm

Thu Feb 27, 10:00pm

Thu Feb 27, 9:10pm

Thu Feb 27, 9:00pm

Thu Feb 27, 8:10pm

Thu Feb 27, 8:01pm

Thu Feb 27, 7:10pm

Thu Feb 27, 7:00pm

Wed Feb 26, 11:10am

Wed Feb 26, 11:00am

Wed Feb 26, 10:10am

Wed Feb 26, 10:01am

Wed Feb 26, 9:10am

Wed Feb 26, 9:00am

Wed Feb 26, 8:10am

Wed Feb 26, 8:00am

Wed Feb 26, 7:10am

Wed Feb 26, 7:00am

Wed Feb 26, 6:10am

Wed Feb 26, 6:00am

Wed Feb 26, 5:10am

Wed Feb 26, 5:00am

Wed Feb 26, 4:10am

Wed Feb 26, 4:00am

Wed Feb 26, 3:10am

Wed Feb 26, 3:00am

Wed Feb 26, 2:10am

Wed Feb 26, 2:00am

Wed Feb 26, 1:10am

Meta data:

ID: 5bde5f6c-0be6-4840-a4c7-afee34d0af62
Link: https://api.weather.gov/products/5bde5f6c-0be6-4840-a4c7-afee34d0af62